Hourly Data Report for September 20, 2017

All times are specified in Local Standard Time (LST). Add 1 hour to adjust for Daylight Saving Time where and when it is observed.

MONCTON INTL A
NEW BRUNSWICK

46°06'44.000" N
64°40'43.000" W
70.70 m
8103201
71705
YQM

Download Data

Hourly Data (September 2017)
Hourly Data Report for September 20, 2017
Temp Definition
°C
Dew Point Temp Definition
°C
Rel Hum Definition
%
Wind Dir Definition
10's deg

Wind Spd Definition
km/h
Visibility Definition
km
Stn Press Definition
kPa
Hmdx Definition


Wind Chill Definition


Weather Definition


TIME
00:00 Legend Double Dagger 19.5 18.7 95 15 7 24.1 101.17     Rain Showers
01:00 Legend Double Dagger 19.5 18.8 95 16 13 24.1 101.13     Rain Showers
02:00 Legend Double Dagger 19.7 18.9 95 16 10 24.1 101.07     Cloudy
03:00 Legend Double Dagger 19.6 19.0 97 36 2 19.3 101.07     Drizzle
04:00 Legend Double Dagger 19.6 19.0 96 18 6 24.1 101.04     Drizzle
05:00 Legend Double Dagger 19.3 18.9 98 14 9 24.1 100.99     Cloudy
06:00 Legend Double Dagger 19.5 19.0 97 15 10 12.9 100.96     LegendNANA
07:00 Legend Double Dagger 19.9 19.0 95 19 4 16.1 101.02     LegendNANA
08:00 Legend Double Dagger 20.1 19.1 94 36 2 19.3 100.98 27   Mostly Cloudy
09:00 Legend Double Dagger 20.5 19.2 92 9 3 19.3 100.97 27   LegendNANA
10:00 Legend Double Dagger 21.0 19.2 90 36 2 19.3 100.94 28   LegendNANA
11:00 Legend Double Dagger 22.1 19.5 85 0 1 24.1 100.89 29   Cloudy
12:00 Legend Double Dagger 22.1 19.9 87 4 9 24.1 100.83 30   LegendNANA
13:00 Legend Double Dagger 24.2 20.1 78 36 7 24.1 100.75 32   LegendNANA
14:00 Legend Double Dagger 24.2 19.9 76 4 14 24.1 100.71 32   Mostly Cloudy
15:00 Legend Double Dagger 23.8 19.8 78 1 16 24.1 100.67 31   LegendNANA
16:00 Legend Double Dagger 23.0 19.7 81 3 15 24.1 100.67 30   LegendNANA
17:00 Legend Double Dagger 22.3 18.8 80 2 17 24.1 100.69 29   Mostly Cloudy
18:00 Legend Double Dagger 20.3 18.5 89 4 15 24.1 100.71 27   LegendNANA
19:00 Legend Double Dagger 18.3 17.3 94 4 14 24.1 100.74     LegendNANA
20:00 Legend Double Dagger 18.0 17.0 94 3 10 24.1 100.79     Mostly Cloudy
21:00 Legend Double Dagger 16.8 16.1 96 1 22 24.1 100.84     LegendNANA
22:00 Legend Double Dagger 16.6 15.7 94 5 14 24.1 100.91     LegendNANA
23:00 Legend Double Dagger 15.6 15.2 97 1 9 24.1 100.96     Mostly Cloudy

Notes on Data Quality.

Legend

  • E = Estimated
  • M = Missing
  • NA = Not Available
  • ‡ = Partner data that is not subject to review by the National Climate Archives
Date modified: